Location: Ebersheim
(48.3033°N, 7.4991°E)
Time: 09:38:26
(UTC+00:00)

Cosmos 1464 Rocket - Pass Details

Date: 27 February 2020
Orbit: 952 x 1002 km, 82.9° (Epoch: 03 April)

Event Time Altitude Azimuth Distance (km) Brightness Sun altitude
Rises 18:03:40 0° 170° (S) 3,707 7.0 -9.7°
Reaches altitude 10° 18:06:14 10° 166° (SSE) 2,765 6.3 -10.1°
Maximum altitude 18:12:22 53° 91° (E) 1,214 4.2 -11.1°
Drops below altitude 10° 18:18:33 10° 17° (NNE) 2,783 6.2 -12.2°
Sets 18:21:08 0° 13° (NNE) 3,734 6.9 -12.6°
